Regional Weather Roundup
Issued by NWS

Home | Current Version | Previous Version | Graphics & Text | Print | Product List | Glossary On
Versions: 1 2 3 4 5 6 7 8 9 10 11 12 13 14 15 16 17 18 19 20 21 22 23 24 25 26 27 28 29 30 31 32 33 34 35 36 37 38 39 40 41 42 43 44 45 46 47 48 49
000
ASUS45 KCYS 280010
RWRWY

WYOMING REGIONAL WEATHER ROUNDUP
NATIONAL WEATHER SERVICE CHEYENNE WY
500 PM MST SAT DEC 27 2014

NOTE:  "FAIR" INDICATES FEW OR NO CLOUDS BELOW 12,000 FEET
WITH NO SIGNIFICANT WEATHER AND/OR OBSTRUCTIONS TO VISIBILITY.

WYZ001-280100-
YELLOWSTONE NATIONAL PARK

CITY           SKY/WX    TMP DP  RH WIND       PRES   REMARKS
LK YELLOWSTONE   N/A     10   4  76 CALM      30.05R
6HR MIN TEMP:   8; 6HR MAX TEMP:  13; 6HR PCP:  0.04;

W YELLOWSTONE  NOT AVBL

$$
WYZ002>013-054>058-071-098>099-280100-
NORTHERN WYOMING

CITY           SKY/WX    TMP DP  RH WIND       PRES   REMARKS
JACKSON        CLOUDY    18  14  86 S12       30.10F FOG     WCI   5
CODY           FAIR      25   7  46 CALM      29.98S
GREYBULL       FAIR       5   2  87 S3        30.09S
6HR MIN TEMP:   4; 6HR MAX TEMP:  12;

WORLAND        FAIR       0  -4  83 S6        30.08R WCI -12
6HR MIN TEMP:  -1; 6HR MAX TEMP:   7;

SHERIDAN       CLOUDY    18   6  59 S6        30.00S WCI  10
6HR MIN TEMP:  12; 6HR MAX TEMP:  23;

BUFFALO        FAIR      18   2  49 S3        29.99S
6HR MIN TEMP:  18; 6HR MAX TEMP:  26;

GILLETTE       MOCLDY    17   8  67 SW8       30.01S WCI   7
6HR MIN TEMP:  17; 6HR MAX TEMP:  25;

HULETT           N/A    N/A N/A N/A MISG        N/A
NEWCASTLE      FAIR      21  12  68 MISG      30.04S

$$
WYZ014>020-022>026-101>103-280100-
CENTRAL WYOMING

CITY           SKY/WX    TMP DP  RH WIND       PRES   REMARKS
BIG PINEY      FAIR       2  -2  83 CALM      30.11S
6HR MIN TEMP:  -5; 6HR MAX TEMP:  10;

PINEDALE       FAIR       5   1  85 W6        30.10R WCI  -6
DUBOIS         NOT AVBL
LANDER         FAIR      11   3  70 CALM      30.01R
6HR MIN TEMP:   9; 6HR MAX TEMP:  17;

RIVERTON       FAIR       8   3  80 CALM      30.03R
6HR MIN TEMP:   8; 6HR MAX TEMP:  14;

CASPER         FAIR      18   7  62 SW18      30.03R WCI   2
6HR MIN TEMP:  16; 6HR MAX TEMP:  21;

DOUGLAS        FAIR      15   5  64 NW5       30.04R WCI   8
6HR MIN TEMP:   9; 6HR MAX TEMP:  26;


$$
WYZ021-027>030-104>119-280100-
SOUTHERN WYOMING

CITY           SKY/WX    TMP DP  RH WIND       PRES   REMARKS
EVANSTON       FAIR      12   6  77 SW8       30.17R WCI   0
6HR MIN TEMP:  12; 6HR MAX TEMP:  18;

FORT BRIDGER   CLOUDY    17  10  75 W21G30    30.16S WCI   0
ROCK SPRINGS   CLOUDY    15   8  73 W20       30.13R WCI  -2
6HR MIN TEMP:  11; 6HR MAX TEMP:  17;

DIXON          FAIR      16   5  61 S10G18    30.20S WCI   4
RAWLINS        CLOUDY    14   7  73 SW31G41   30.05R BLWGSNOWWCI  -7
6HR MIN TEMP:  11; 6HR MAX TEMP:  16; 6HR PCP: TRACE;

SARATOGA       CLOUDY    12   3  67 SE6       30.09S WCI   3
LARAMIE        MOCLDY    14   2  58 W20       29.98S WCI  -3
6HR MIN TEMP:  10; 6HR MAX TEMP:  16;

CHEYENNE       FAIR      14   2  58 SW9       30.02R WCI   2
6HR MIN TEMP:  14; 6HR MAX TEMP:  20;

TORRINGTON     FAIR      24  12  60 W18       30.06R WCI  10
6HR MIN TEMP:   8; 6HR MAX TEMP:  26;

PINE BLUFFS    FAIR      10   3  72 SW3       30.07R

$$


USA.gov is the U.S. government's official web portal to all federal, state and local government web resources and services.